Погода в Верхнеимбатске

Россия / Красноярский край     63°09′17″N   87°58′01″E
темп.,
°C
ветер,
м/с
пор.,
м/с
влажн.,
%
обл.,
%
осадки,
мм/ч
давл.,
гПа
погр.,
м
19 января, вт
вт1901:00−20з3697100 0.6 999207
04:00−26з2598100 0.1 1001184
07:00−27з1199100 0.2 100322
10:00−27сз119999 0.1 100519
13:00−26зюз0198100 0.1 100793
16:00−27з119998 0.1 100919
19:00−28сз119996 0.1 101319
22:00−31зсз1110085 0.0 101419
20 января, ср
ср2001:00−34з1110088 0.0 101719
04:00−32ююз129899 0.0 101834
07:00−31ю2497100 0.1 1020191
10:00−31ю2598100 0.1 1021264
13:00−30ююз3596100 0.3 1022314
16:00−30ююз2497100 0.1 1024252
19:00−30ююз2498100 0.2 1025160
22:00−31ююз23100100 0.1 102771
21 января, чт
чт2101:00−33ююз22100100 0.1 102824
04:00−35ю22100100 0.0 102833
07:00−36ююв2399100 0.1 102959
10:00−34юв3697100 0.1 1028212
13:00−33юв4795100 0.1 1027292
16:00−33юв489499 0.0 1025260
19:00−32юв499398 0.1 1023334
22:00−30вюв4994100 0.1 1020362
22 января, пт
пт2201:00−29вюв41095100 0.3 1017387
04:00−28вюв41095100 0.3 1015426
07:00−27вюв41094100 0.4 1012445
10:00−27вюв51094100 0.1 1010497
13:00−27вюв51095100 0.4 1009555
16:00−27вюв4994100 0.2 1008538
19:00−27вюв4995100 0.3 1007420
22:00−27вюв4895100 0.1 1007391
23 января, сб
сб2301:00−27в3796100 0.3 1007322
04:00−27вюв3797100 0.1 1007257
07:00−27вюв3697100 0.3 1008198
10:00−27вюв2497100 0.1 1010137
13:00−26ююв2396100 0.2 1011284
16:00−27ююз2298100 0.1 101350
19:00−30юз1299100 0.1 101519
22:00−33ююз1110099 0.0 101719